TimeHST,TemperatureF,Dew PointF,Humidity,Sea Level PressureIn,VisibilityMPH,Wind Direction,Wind SpeedMPH,Gust SpeedMPH,PrecipitationIn,Events,Conditions,WindDirDegrees,DateUTC
12:53 AM,73.0,66.0,79,30.07,10.0,East,19.6,-,N/A,,Mostly Cloudy,90,2012-02-29 10:53:00
1:53 AM,73.0,66.0,79,30.05,9.0,East,19.6,-,N/A,,Overcast,100,2012-02-29 11:53:00
2:53 AM,73.0,66.0,79,30.04,9.0,East,16.1,-,N/A,,Mostly Cloudy,100,2012-02-29 12:53:00
3:11 AM,73.4,66.2,78,30.04,8.0,ESE,16.1,-,N/A,,Mostly Cloudy,110,2012-02-29 13:11:00
3:53 AM,73.0,66.0,79,30.03,8.0,East,21.9,26.5,0.00,Rain,Light Rain,100,2012-02-29 13:53:00
4:53 AM,73.0,66.0,79,30.03,9.0,East,20.7,-,0.00,,Overcast,90,2012-02-29 14:53:00
5:53 AM,73.0,64.9,76,30.04,10.0,ESE,21.9,-,N/A,,Partly Cloudy,110,2012-02-29 15:53:00
6:53 AM,73.0,66.0,79,30.06,9.0,ESE,18.4,-,N/A,,Mostly Cloudy,110,2012-02-29 16:53:00
7:06 AM,73.4,66.2,78,30.06,9.0,ESE,18.4,-,N/A,,Overcast,110,2012-02-29 17:06:00
7:19 AM,73.4,66.2,78,30.06,9.0,East,18.4,-,N/A,,Mostly Cloudy,100,2012-02-29 17:19:00
7:27 AM,73.4,66.2,78,30.07,8.0,East,17.3,25.3,N/A,,Mostly Cloudy,100,2012-02-29 17:27:00
7:34 AM,73.4,66.2,78,30.07,8.0,East,18.4,-,N/A,,Scattered Clouds,100,2012-02-29 17:34:00
7:53 AM,73.0,64.9,76,30.07,9.0,ESE,17.3,-,N/A,,Mostly Cloudy,120,2012-02-29 17:53:00
8:53 AM,73.9,66.0,76,30.07,7.0,ESE,18.4,-,N/A,,Overcast,110,2012-02-29 18:53:00
9:53 AM,73.9,66.0,76,30.09,8.0,ESE,13.8,-,N/A,,Overcast,120,2012-02-29 19:53:00
10:00 AM,73.4,66.2,78,30.10,9.0,SE,13.8,-,N/A,,Overcast,130,2012-02-29 20:00:00
10:53 AM,75.9,66.0,71,30.10,10.0,SE,8.1,-,N/A,,Overcast,140,2012-02-29 20:53:00
11:53 AM,75.0,66.9,76,30.09,10.0,East,9.2,-,N/A,,Mostly Cloudy,90,2012-02-29 21:53:00
12:26 PM,69.8,66.2,88,30.08,0.8,SSW,13.8,17.3,0.06,Rain,Heavy Rain,200,2012-02-29 22:26:00
12:33 PM,71.6,68.0,88,30.08,1.0,South,10.4,17.3,0.19,Rain,Rain,190,2012-02-29 22:33:00
12:40 PM,71.6,69.8,94,30.08,3.0,South,6.9,-,0.21,Rain,Light Rain,190,2012-02-29 22:40:00
12:53 PM,71.1,69.1,93,30.07,7.0,South,5.8,-,0.22,Rain,Light Rain,190,2012-02-29 22:53:00
1:02 PM,69.8,66.2,88,30.08,2.5,SE,15.0,-,0.02,Rain,Rain,140,2012-02-29 23:02:00
1:05 PM,69.8,66.2,88,30.08,1.5,SSE,12.7,17.3,0.02,Rain,Heavy Rain,150,2012-02-29 23:05:00
1:09 PM,69.8,66.2,88,30.08,1.2,SE,5.8,17.3,0.11,Rain-Thunderstorm,Heavy Thunderstorms and Rain,130,2012-02-29 23:09:00
1:11 PM,69.8,66.2,88,30.07,1.2,SE,8.1,-,0.15,Rain-Thunderstorm,Light Thunderstorms and Rain,140,2012-02-29 23:11:00
1:16 PM,69.8,66.2,88,30.07,3.0,SSE,10.4,-,0.15,Rain-Thunderstorm,Light Thunderstorms and Rain,150,2012-02-29 23:16:00
1:39 PM,71.6,66.2,83,30.06,4.0,SSE,10.4,-,0.16,Rain,Light Rain,160,2012-02-29 23:39:00
1:53 PM,70.0,66.9,90,30.06,7.0,SSE,13.8,-,0.16,Rain,Light Rain,160,2012-02-29 23:53:00
2:53 PM,72.0,66.0,81,30.04,10.0,WSW,4.6,-,0.00,,Overcast,240,2012-03-01 00:53:00
3:53 PM,70.0,66.9,90,30.04,6.0,NNE,9.2,-,0.00,,Overcast,30,2012-03-01 01:53:00
4:35 PM,69.8,66.2,88,30.06,8.0,ENE,12.7,-,N/A,,Scattered Clouds,70,2012-03-01 02:35:00
4:53 PM,69.1,66.0,90,30.06,5.0,ENE,12.7,-,0.00,Rain,Light Rain,70,2012-03-01 02:53:00
5:53 PM,69.1,66.9,93,30.07,4.0,North,6.9,-,0.03,Rain,Light Rain,350,2012-03-01 03:53:00
6:16 PM,68.0,66.2,94,30.08,2.5,NNW,8.1,-,0.03,Rain,Rain,340,2012-03-01 04:16:00
6:37 PM,68.0,66.2,94,30.08,4.0,NW,9.2,-,0.08,Rain,Rain,320,2012-03-01 04:37:00
6:53 PM,68.0,66.0,93,30.08,7.0,NW,8.1,-,0.10,Rain,Light Rain,320,2012-03-01 04:53:00
7:53 PM,68.0,66.0,93,30.09,3.0,SW,6.9,-,0.16,Rain,Heavy Rain,230,2012-03-01 05:53:00
8:25 PM,71.6,66.2,83,30.10,5.0,East,15.0,-,0.11,Rain,Rain,90,2012-03-01 06:25:00
8:53 PM,72.0,66.9,84,30.11,9.0,East,16.1,-,0.12,Rain,Light Rain,90,2012-03-01 06:53:00
9:19 PM,71.6,66.2,83,30.11,9.0,East,13.8,-,0.00,,Mostly Cloudy,90,2012-03-01 07:19:00
9:53 PM,72.0,66.0,81,30.10,9.0,East,13.8,-,0.00,Rain,Light Rain,90,2012-03-01 07:53:00
10:10 PM,71.6,66.2,83,30.10,9.0,East,15.0,-,0.00,Rain,Light Rain,90,2012-03-01 08:10:00
10:18 PM,71.6,66.2,83,30.10,10.0,East,15.0,-,0.00,,Mostly Cloudy,90,2012-03-01 08:18:00
10:36 PM,73.4,66.2,78,30.10,10.0,East,12.7,-,0.00,,Mostly Cloudy,80,2012-03-01 08:36:00
10:53 PM,73.0,66.0,79,30.09,9.0,East,12.7,-,0.00,,Mostly Cloudy,80,2012-03-01 08:53:00
11:18 PM,73.4,66.2,78,30.10,10.0,East,15.0,-,N/A,,Scattered Clouds,80,2012-03-01 09:18:00
11:28 PM,73.4,66.2,78,30.10,9.0,East,13.8,-,N/A,,Mostly Cloudy,80,2012-03-01 09:28:00
11:53 PM,73.0,66.0,79,30.10,9.0,East,13.8,-,N/A,,Mostly Cloudy,80,2012-03-01 09:53:00